Regional Weather Roundup
Issued by NWS

Home | Current Version | Previous Version | Graphics & Text | Print | Product List | Glossary On
Versions: 1 2 3 4 5 6 7 8 9 10 11 12 13 14 15 16 17 18 19 20 21 22 23 24 25 26 27 28 29 30 31 32 33 34 35 36 37 38 39 40 41 42 43 44 45 46 47 48 49 50
225
ASUS44 KJAN 312310
RWRMS

MISSISSIPPI HOURLY WEATHER ROUNDUP
NATIONAL WEATHER SERVICE JACKSON MS
600 PM CDT TUE MAR 31 2015

NOTE: "FAIR: INDICATES FEW OR NO CLOUDS BELOW 12,000 FEET WITH NO
SIGNIFICANT WEATHER AND/OR OBSTRUCTIONS TO VISIBILITY.

MSZ001>002-007>008-010>013-018>021-025>028-034>036-010000-
NORTHWEST MISSISSIPPI

CITY           SKY/WX    TMP DP  RH WIND       PRES   REMARKS
CLARKSDALE     FAIR      72  66  83 SW9       29.91F
CLEVELAND      FAIR      69  63  82 S6        29.93F
GREENWOOD      CLOUDY    73  59  61 NW7       29.92F
GREENVILLE     MOSUNNY   67  62  84 E9        29.93S
OLIVE BRANCH   MOSUNNY   75  63  64 SW13      29.90S
OXFORD         FAIR      68  59  73 SW3       29.92F
TUNICA         PTCLDY    73  63  68 SW12      29.91F
$$

MSZ003>006-009-014>017-022>024-029>033-037>039-010000-
NORTHEAST MISSISSIPPI

CITY           SKY/WX    TMP DP  RH WIND       PRES   REMARKS
COLUMBUS AFB   CLOUDY    75  60  60 SW8       29.91F
CORINTH        FAIR      77  59  53 SW14      29.87F
GOLDN TRIANGLE PTSUNNY   77  59  53 W9        29.94R
STARKVILLE     LGT RAIN  73  61  64 SW8       29.93F
TUPELO         CLOUDY    72  59  63 W6        29.89F
$$

MSZ040-058-010000-
CENTRAL MISSISSIPPI

CITY           SKY/WX    TMP DP  RH WIND       PRES   REMARKS
JACKSON INTL   PTSUNNY   79  54  41 SW10      29.96S
JACKSON HAWKNS PTSUNNY   80  53  39 SW13G20   29.97R
MERIDIAN KEY   MOSUNNY   79  52  38 W6        29.97R
MERIDIAN NAS   PTSUNNY   80  53  39 W13       29.98R
RAYMOND        FAIR      79  73  83 SW8       29.96S
VICKSBURG      PTSUNNY   81  55  40 SW8       29.95S
$$

MSZ059>079-010000-
SOUTH MISSISSIPPI

CITY           SKY/WX    TMP DP  RH WIND       PRES   REMARKS
BROOKHAVEN     FAIR      81  57  44 SW8       29.99S
HATTIESBURG    MOSUNNY   82  56  40 W12G17    29.98S
MCCOMB         MOSUNNY   80  58  46 SW9       29.98S
NATCHEZ        SUNNY     81  59  47 S13       29.97S
PINE BELT      MOSUNNY   79  55  44 SW7G16    30.00R
$$

MSZ080>082-010000-
COASTAL MISSISSIPPI

CITY           SKY/WX    TMP DP  RH WIND       PRES   REMARKS
BAY ST LOUIS   MOSUNNY   81  54  39 MISG      30.00S
BILOXI         SUNNY     76  67  76 S10       30.00S
PASCAGOULA     SUNNY     75  65  70 S6        30.01F
GULFPORT       MOSUNNY   78  63  59 S8        29.99F
$$



USA.gov is the U.S. government's official web portal to all federal, state and local government web resources and services.